QPF
0.00 0.00 0.00 0.00 0.00 0.00 0.00 0.00 0.00 0.00 0.00 0.00 0.00 0.00 0.00 0.00 0.00 0.00 0.00 0.00 0.00 0.00 0.00 0.00 0.00 0.00 0.00 0.00 0.01 0.01 0.02 0.02 0.02 0.02 0.01 0.01 0.02 0.04 0.06 0.10 0.13 0.13 0.14
0.00 0.00 0.00 0.00 0.00 0.00 0.00 0.00 0.00 0.00 0.00 0.00 0.00 0.00 0.00 0.00 0.00 0.00 0.00 0.00 0.00 0.00 0.00 0.00 0.00 0.00 0.00 0.01 0.01 0.01 0.01 0.01 0.01 0.01 0.01 0.01 0.01 0.02 0.03 0.06 0.09 0.09 0.11
0.00 0.00 0.00 0.00 0.00 0.00 0.00 0.00 0.00 0.00 0.00 0.00 0.00 0.00 0.00 0.00 0.00 0.00 0.00 0.00 0.00 0.00 0.00 0.00 0.00 0.00 0.00 0.00 0.01 0.01 0.01 0.01 0.01 0.01 0.01 0.01 0.01 0.02 0.03 0.05 0.06 0.07 0.10
0.00 0.00 0.00 0.00 0.00 0.00 0.00 0.00 0.00 0.00 0.00 0.00 0.00 0.00 0.00 0.00 0.00 0.00 0.00 0.00 0.00 0.00 0.00 0.00 0.00 0.00 0.00 0.00 0.01 0.02 0.02 0.01 0.01 0.01 0.01 0.01 0.01 0.02 0.03 0.04 0.05 0.07 0.09
0.00 0.00 0.00 0.00 0.00 0.00 0.00 0.00 0.00 0.00 0.00 0.00 0.00 0.00 0.00 0.00 0.00 0.00 0.00 0.00 0.00 0.00 0.00 0.00 0.00 0.00 0.00 0.01 0.01 0.02 0.02 0.02 0.02 0.02 0.01 0.01 0.01 0.02 0.02 0.05 0.06 0.09 0.12
0.00 0.00 0.00 0.00 0.00 0.00 0.00 0.00 0.00 0.00 0.00 0.00 0.00 0.00 0.00 0.00 0.00 0.00 0.00 0.00 0.00 0.00 0.00 0.00 0.00 0.00 0.00 0.01 0.01 0.01 0.01 0.02 0.02 0.03 0.02 0.02 0.01 0.02 0.02 0.04 0.08 0.09 0.11
0.00 0.00 0.00 0.00 0.00 0.00 0.00 0.00 0.00 0.00 0.00 0.00 0.00 0.00 0.00 0.00 0.00 0.00 0.00 0.00 0.00 0.00 0.00 0.00 0.00 0.00 0.01 0.01 0.01 0.01 0.02 0.03 0.03 0.02 0.02 0.01 0.01 0.02 0.04 0.04 0.05 0.07 0.08
0.00 0.00 0.00 0.00 0.00 0.00 0.00 0.00 0.00 0.00 0.00 0.00 0.00 0.00 0.00 0.00 0.00 0.00 0.00 0.00 0.00 0.00 0.00 0.00 0.01 0.01 0.01 0.01 0.02 0.02 0.02 0.03 0.04 0.03 0.02 0.02 0.02 0.03 0.04 0.05 0.07 0.07 0.08
0.00 0.00 0.00 0.00 0.00 0.00 0.00 0.00 0.00 0.00 0.00 0.00 0.00 0.00 0.00 0.00 0.00 0.00 0.00 0.00 0.00 0.00 0.00 0.00 0.01 0.01 0.00 0.01 0.01 0.02 0.02 0.04 0.04 0.04 0.03 0.03 0.03 0.03 0.04 0.05 0.08 0.09 0.08
0.00 0.00 0.00 0.00 0.00 0.00 0.00 0.00 0.00 0.00 0.00 0.00 0.00 0.00 0.00 0.00 0.00 0.00 0.00 0.00 0.00 0.00 0.01 0.01 0.01 0.00 0.00 0.00 0.01 0.01 0.02 0.03 0.03 0.03 0.02 0.02 0.02 0.02 0.04 0.06 0.08 0.09 0.08
0.00 0.00 0.00 0.00 0.00 0.00 0.00 0.00 0.00 0.00 0.00 0.00 0.00 0.00 0.00 0.00 0.00 0.00 0.00 0.00 0.00 0.00 0.01 0.01 0.01 0.00 0.00 0.00 0.00 0.01 0.01 0.02 0.03 0.05 0.05 0.05 0.04 0.03 0.04 0.05 0.08 0.12 0.10
0.00 0.00 0.00 0.00 0.00 0.00 0.00 0.00 0.00 0.00 0.00 0.00 0.00 0.00 0.00 0.00 0.00 0.00 0.00 0.00 0.00 0.00 0.00 0.01 0.00 0.00 0.00 0.00 0.00 0.00 0.01 0.01 0.02 0.04 0.06 0.07 0.07 0.05 0.04 0.05 0.07 0.09 0.12
0.00 0.00 0.00 0.00 0.00 0.00 0.00 0.00 0.00 0.00 0.01 0.00 0.00 0.00 0.00 0.00 0.00 0.00 0.00 0.00 0.00 0.00 0.00 0.00 0.00 0.00 0.00 0.00 0.00 0.01 0.02 0.02 0.02 0.03 0.04 0.05 0.06 0.05 0.04 0.04 0.06 0.07 0.09
0.00 0.00 0.00 0.00 0.00 0.00 0.00 0.00 0.00 0.00 0.01 0.01 0.00 0.00 0.00 0.00 0.01 0.01 0.00 0.00 0.00 0.00 0.00 0.00 0.00 0.00 0.00 0.00 0.01 0.01 0.02 0.03 0.03 0.03 0.03 0.03 0.04 0.05 0.06 0.05 0.05 0.06 0.08
0.00 0.00 0.00 0.00 0.00 0.00 0.00 0.00 0.00 0.00 0.00 0.01 0.00 0.00 0.01 0.01 0.01 0.01 0.00 0.00 0.00 0.00 0.00 0.00 0.00 0.01 0.01 0.01 0.01 0.01 0.02 0.05 0.06 0.04 0.03 0.03 0.04 0.05 0.04 0.05 0.06 0.06 0.07
0.00 0.00 0.00 0.00 0.00 0.00 0.00 0.00 0.00 0.00 0.00 0.00 0.00 0.01 0.01 0.01 0.01 0.01 0.01 0.00 0.00 0.00 0.00 0.00 0.00 0.01 0.01 0.01 0.01 0.02 0.02 0.03 0.05 0.06 0.05 0.05 0.04 0.05 0.05 0.05 0.07 0.06 0.06
0.00 0.00 0.00 0.00 0.00 0.00 0.00 0.00 0.00 0.00 0.00 0.00 0.00 0.01 0.01 0.01 0.01 0.01 0.01 0.00 0.00 0.00 0.00 0.00 0.01 0.01 0.01 0.02 0.02 0.02 0.02 0.03 0.03 0.05 0.05 0.04 0.05 0.06 0.06 0.06 0.06 0.06 0.05
0.00 0.00 0.00 0.00 0.00 0.00 0.00 0.00 0.00 0.00 0.00 0.00 0.00 0.01 0.01 0.01 0.01 0.01 0.00 0.00 0.00 0.00 0.00 0.01 0.01 0.01 0.01 0.02 0.02 0.01 0.02 0.03 0.03 0.04 0.04 0.04 0.04 0.06 0.07 0.07 0.06 0.05 0.05
0.00 0.01 0.01 0.00 0.00 0.00 0.00 0.00 0.00 0.00 0.00 0.01 0.01 0.01 0.01 0.00 0.01 0.01 0.00 0.00 0.00 0.01 0.01 0.02 0.02 0.01 0.02 0.01 0.01 0.02 0.02 0.03 0.03 0.04 0.04 0.04 0.05 0.05 0.06 0.09 0.07 0.06 0.05
0.01 0.01 0.01 0.01 0.00 0.01 0.01 0.00 0.00 0.01 0.01 0.01 0.01 0.01 0.01 0.01 0.01 0.01 0.01 0.01 0.01 0.01 0.01 0.01 0.01 0.01 0.01 0.01 0.01 0.01 0.02 0.03 0.03 0.03 0.03 0.03 0.04 0.04 0.04 0.07 0.06 0.05 0.05
0.01 0.01 0.01 0.01 0.01 0.01 0.01 0.01 0.01 0.01 0.01 0.02 0.02 0.02 0.01 0.01 0.01 0.01 0.01 0.01 0.01 0.01 0.01 0.01 0.01 0.01 0.01 0.01 0.01 0.01 0.01 0.02 0.03 0.02 0.02 0.01 0.02 0.03 0.03 0.04 0.05 0.05 0.06
0.01 0.01 0.01 0.01 0.01 0.01 0.01 0.01 0.01 0.01 0.01 0.02 0.01 0.01 0.02 0.01 0.01 0.01 0.01 0.01 0.01 0.01 0.01 0.01 0.01 0.01 0.01 0.01 0.02 0.01 0.01 0.02 0.02 0.02 0.02 0.01 0.01 0.02 0.03 0.03 0.05 0.05 0.06
0.01 0.01 0.01 0.01 0.01 0.01 0.01 0.01 0.01 0.01 0.01 0.02 0.02 0.01 0.01 0.01 0.01 0.01 0.01 0.01 0.01 0.01 0.01 0.01 0.01 0.01 0.01 0.01 0.01 0.01 0.01 0.01 0.01 0.01 0.01 0.01 0.02 0.02 0.03 0.04 0.05 0.06 0.06
0.01 0.01 0.01 0.01 0.01 0.01 0.01 0.01 0.01 0.02 0.02 0.02 0.02 0.02 0.01 0.01 0.01 0.01 0.01 0.01 0.01 0.01 0.01 0.01 0.01 0.01 0.01 0.01 0.00 0.01 0.01 0.01 0.01 0.00 0.01 0.01 0.01 0.02 0.02 0.03 0.05 0.05 0.05
0.01 0.01 0.01 0.02 0.02 0.01 0.01 0.01 0.01 0.02 0.03 0.02 0.02 0.02 0.02 0.02 0.02 0.03 0.02 0.02 0.01 0.01 0.01 0.01 0.01 0.01 0.01 0.00 0.00 0.00 0.00 0.00 0.01 0.01 0.00 0.01 0.01 0.02 0.02 0.02 0.03 0.04 0.04
0.01 0.01 0.01 0.01 0.01 0.01 0.01 0.01 0.01 0.02 0.02 0.02 0.02 0.02 0.03 0.03 0.03 0.04 0.03 0.03 0.02 0.01 0.01 0.01 0.01 0.01 0.01 0.01 0.00 0.00 0.00 0.00 0.00 0.00 0.00 0.01 0.01 0.01 0.02 0.02 0.02 0.02 0.03
MSLP
1017.17 1017.41 1017.67 1017.90 1018.07 1018.14 1018.13 1018.02 1017.86 1017.67 1017.47 1017.30 1017.16 1017.05 1016.97 1016.91 1016.85 1016.79 1016.71 1016.63 1016.54 1016.44 1016.36 1016.28 1016.22 1016.16 1016.11 1016.07 1016.02 1015.96 1015.88 1015.78 1015.65 1015.48 1015.26 1014.99 1014.69 1014.35 1014.00 1013.66 1013.35 1013.11 1012.95
1017.16 1017.35 1017.55 1017.72 1017.84 1017.89 1017.86 1017.76 1017.61 1017.43 1017.25 1017.09 1016.96 1016.86 1016.78 1016.72 1016.66 1016.59 1016.51 1016.40 1016.28 1016.14 1015.99 1015.85 1015.71 1015.58 1015.46 1015.37 1015.29 1015.23 1015.17 1015.12 1015.04 1014.94 1014.80 1014.61 1014.37 1014.10 1013.80 1013.49 1013.20 1012.96 1012.78
1017.17 1017.31 1017.45 1017.56 1017.63 1017.64 1017.59 1017.48 1017.34 1017.18 1017.01 1016.87 1016.75 1016.65 1016.57 1016.50 1016.44 1016.36 1016.27 1016.15 1016.00 1015.84 1015.65 1015.46 1015.26 1015.07 1014.90 1014.75 1014.63 1014.54 1014.47 1014.41 1014.36 1014.30 1014.21 1014.08 1013.92 1013.72 1013.48 1013.24 1013.00 1012.78 1012.60
1017.15 1017.26 1017.36 1017.42 1017.44 1017.41 1017.33 1017.21 1017.07 1016.91 1016.76 1016.62 1016.50 1016.40 1016.32 1016.24 1016.16 1016.08 1015.98 1015.85 1015.70 1015.53 1015.33 1015.12 1014.89 1014.67 1014.45 1014.25 1014.07 1013.92 1013.80 1013.71 1013.64 1013.58 1013.52 1013.44 1013.34 1013.21 1013.06 1012.90 1012.72 1012.54 1012.38
1017.08 1017.18 1017.25 1017.27 1017.25 1017.18 1017.08 1016.95 1016.80 1016.65 1016.50 1016.36 1016.24 1016.13 1016.03 1015.93 1015.84 1015.74 1015.63 1015.50 1015.36 1015.20 1015.02 1014.81 1014.58 1014.34 1014.09 1013.84 1013.61 1013.39 1013.21 1013.06 1012.94 1012.85 1012.78 1012.73 1012.68 1012.62 1012.56 1012.47 1012.37 1012.25 1012.10
1016.94 1017.05 1017.10 1017.10 1017.04 1016.94 1016.82 1016.68 1016.53 1016.38 1016.23 1016.10 1015.97 1015.84 1015.72 1015.60 1015.47 1015.35 1015.23 1015.11 1014.98 1014.85 1014.69 1014.51 1014.30 1014.06 1013.79 1013.51 1013.21 1012.93 1012.66 1012.43 1012.25 1012.12 1012.03 1011.99 1011.98 1011.99 1012.00 1012.00 1011.97 1011.90 1011.78
1016.74 1016.85 1016.90 1016.88 1016.80 1016.69 1016.55 1016.40 1016.25 1016.11 1015.97 1015.83 1015.70 1015.55 1015.40 1015.25 1015.10 1014.95 1014.82 1014.69 1014.58 1014.46 1014.34 1014.19 1014.00 1013.77 1013.50 1013.19 1012.85 1012.49 1012.15 1011.85 1011.59 1011.40 1011.29 1011.25 1011.27 1011.34 1011.42 1011.50 1011.54 1011.52 1011.43
1016.48 1016.61 1016.65 1016.61 1016.53 1016.40 1016.26 1016.12 1015.98 1015.84 1015.71 1015.58 1015.43 1015.27 1015.10 1014.92 1014.74 1014.56 1014.41 1014.27 1014.16 1014.06 1013.96 1013.84 1013.67 1013.46 1013.18 1012.85 1012.46 1012.06 1011.65 1011.28 1010.96 1010.73 1010.59 1010.55 1010.60 1010.71 1010.85 1011.00 1011.10 1011.13 1011.05
1016.21 1016.33 1016.36 1016.32 1016.23 1016.10 1015.96 1015.83 1015.70 1015.58 1015.46 1015.34 1015.19 1015.02 1014.83 1014.62 1014.41 1014.21 1014.04 1013.89 1013.77 1013.68 1013.58 1013.47 1013.31 1013.10 1012.82 1012.46 1012.05 1011.60 1011.15 1010.72 1010.36 1010.09 1009.94 1009.90 1009.97 1010.12 1010.32 1010.51 1010.66 1010.72 1010.66
1015.93 1016.04 1016.07 1016.02 1015.92 1015.79 1015.66 1015.54 1015.42 1015.32 1015.22 1015.10 1014.96 1014.79 1014.59 1014.37 1014.14 1013.92 1013.73 1013.56 1013.43 1013.32 1013.22 1013.10 1012.94 1012.72 1012.42 1012.05 1011.61 1011.13 1010.64 1010.19 1009.80 1009.51 1009.35 1009.32 1009.40 1009.58 1009.80 1010.03 1010.21 1010.29 1010.24
1015.65 1015.75 1015.76 1015.71 1015.61 1015.49 1015.36 1015.24 1015.14 1015.05 1014.96 1014.85 1014.72 1014.55 1014.36 1014.14 1013.91 1013.69 1013.48 1013.31 1013.16 1013.03 1012.91 1012.77 1012.59 1012.35 1012.03 1011.64 1011.18 1010.68 1010.17 1009.70 1009.30 1009.00 1008.83 1008.80 1008.88 1009.06 1009.30 1009.53 1009.72 1009.80 1009.76
1015.36 1015.45 1015.46 1015.40 1015.30 1015.18 1015.06 1014.94 1014.84 1014.76 1014.67 1014.57 1014.45 1014.30 1014.12 1013.92 1013.70 1013.49 1013.29 1013.11 1012.96 1012.82 1012.67 1012.50 1012.29 1012.02 1011.68 1011.26 1010.78 1010.27 1009.76 1009.28 1008.88 1008.57 1008.40 1008.35 1008.42 1008.58 1008.79 1009.00 1009.17 1009.24 1009.19
1015.04 1015.12 1015.13 1015.08 1014.98 1014.86 1014.74 1014.63 1014.52 1014.43 1014.34 1014.24 1014.13 1014.00 1013.84 1013.67 1013.49 1013.31 1013.13 1012.97 1012.81 1012.66 1012.50 1012.30 1012.06 1011.76 1011.39 1010.95 1010.46 1009.94 1009.43 1008.95 1008.55 1008.23 1008.04 1007.96 1007.99 1008.10 1008.27 1008.43 1008.55 1008.60 1008.53
1014.66 1014.74 1014.76 1014.72 1014.64 1014.52 1014.40 1014.28 1014.16 1014.05 1013.95 1013.85 1013.74 1013.63 1013.50 1013.37 1013.24 1013.10 1012.96 1012.83 1012.69 1012.54 1012.36 1012.14 1011.88 1011.55 1011.16 1010.71 1010.21 1009.70 1009.19 1008.72 1008.30 1007.98 1007.76 1007.64 1007.61 1007.65 1007.73 1007.82 1007.88 1007.87 1007.78
1014.19 1014.29 1014.32 1014.31 1014.24 1014.14 1014.01 1013.88 1013.74 1013.61 1013.49 1013.38 1013.27 1013.18 1013.08 1012.99 1012.91 1012.82 1012.73 1012.64 1012.52 1012.39 1012.21 1011.98 1011.70 1011.36 1010.96 1010.51 1010.02 1009.51 1009.02 1008.55 1008.14 1007.80 1007.54 1007.37 1007.26 1007.21 1007.20 1007.20 1007.17 1007.11 1006.98
1013.61 1013.73 1013.79 1013.80 1013.76 1013.67 1013.55 1013.41 1013.25 1013.10 1012.96 1012.83 1012.72 1012.63 1012.56 1012.51 1012.47 1012.44 1012.40 1012.34 1012.26 1012.14 1011.98 1011.75 1011.47 1011.13 1010.73 1010.29 1009.82 1009.34 1008.87 1008.43 1008.03 1007.67 1007.38 1007.15 1006.96 1006.82 1006.70 1006.60 1006.49 1006.36 1006.20
1012.93 1013.07 1013.16 1013.20 1013.19 1013.12 1013.01 1012.86 1012.69 1012.52 1012.35 1012.21 1012.09 1012.00 1011.95 1011.93 1011.92 1011.93 1011.93 1011.91 1011.85 1011.75 1011.60 1011.38 1011.11 1010.78 1010.41 1010.00 1009.57 1009.14 1008.71 1008.31 1007.92 1007.57 1007.26 1006.97 1006.72 1006.49 1006.27 1006.07 1005.88 1005.69 1005.50
1012.17 1012.32 1012.44 1012.50 1012.51 1012.47 1012.37 1012.22 1012.05 1011.86 1011.68 1011.52 1011.39 1011.30 1011.25 1011.24 1011.25 1011.28 1011.30 1011.30 1011.27 1011.18 1011.04 1010.84 1010.59 1010.30 1009.96 1009.61 1009.24 1008.87 1008.51 1008.15 1007.81 1007.48 1007.16 1006.84 1006.53 1006.22 1005.93 1005.64 1005.38 1005.14 1004.94
1011.38 1011.52 1011.64 1011.72 1011.75 1011.72 1011.64 1011.50 1011.33 1011.14 1010.95 1010.77 1010.63 1010.53 1010.47 1010.46 1010.47 1010.50 1010.53 1010.54 1010.51 1010.43 1010.31 1010.13 1009.91 1009.66 1009.38 1009.09 1008.81 1008.52 1008.24 1007.96 1007.68 1007.38 1007.07 1006.74 1006.39 1006.04 1005.68 1005.33 1005.02 1004.74 1004.53
1010.58 1010.69 1010.80 1010.88 1010.92 1010.91 1010.84 1010.72 1010.55 1010.36 1010.16 1009.98 1009.82 1009.71 1009.64 1009.61 1009.62 1009.64 1009.65 1009.65 1009.62 1009.55 1009.44 1009.29 1009.11 1008.91 1008.70 1008.50 1008.30 1008.12 1007.93 1007.74 1007.52 1007.28 1007.00 1006.68 1006.31 1005.92 1005.52 1005.13 1004.78 1004.48 1004.26
1009.83 1009.90 1009.97 1010.04 1010.08 1010.07 1010.01 1009.89 1009.74 1009.55 1009.35 1009.16 1009.00 1008.87 1008.79 1008.74 1008.72 1008.72 1008.73 1008.71 1008.68 1008.61 1008.52 1008.40 1008.26 1008.13 1008.00 1007.89 1007.79 1007.71 1007.62 1007.52 1007.38 1007.19 1006.95 1006.64 1006.27 1005.86 1005.44 1005.02 1004.64 1004.33 1004.10
1009.18 1009.18 1009.21 1009.25 1009.27 1009.25 1009.19 1009.07 1008.92 1008.74 1008.54 1008.35 1008.18 1008.04 1007.94 1007.88 1007.85 1007.83 1007.82 1007.80 1007.77 1007.71 1007.64 1007.57 1007.49 1007.42 1007.38 1007.35 1007.35 1007.36 1007.36 1007.33 1007.26 1007.12 1006.91 1006.62 1006.25 1005.83 1005.38 1004.95 1004.55 1004.22 1004.00
1008.66 1008.60 1008.58 1008.57 1008.55 1008.51 1008.43 1008.31 1008.15 1007.96 1007.76 1007.57 1007.40 1007.25 1007.15 1007.08 1007.04 1007.02 1007.01 1007.00 1006.98 1006.96 1006.92 1006.90 1006.88 1006.88 1006.91 1006.97 1007.04 1007.12 1007.19 1007.22 1007.19 1007.08 1006.88 1006.59 1006.22 1005.79 1005.32 1004.86 1004.45 1004.12 1003.89
1008.29 1008.18 1008.10 1008.04 1007.98 1007.90 1007.79 1007.64 1007.47 1007.27 1007.06 1006.86 1006.69 1006.54 1006.44 1006.38 1006.35 1006.34 1006.35 1006.37 1006.38 1006.40 1006.42 1006.45 1006.49 1006.56 1006.65 1006.76 1006.89 1007.01 1007.11 1007.16 1007.15 1007.04 1006.84 1006.53 1006.14 1005.69 1005.21 1004.73 1004.30 1003.96 1003.73
1008.09 1007.93 1007.80 1007.69 1007.58 1007.45 1007.30 1007.11 1006.90 1006.68 1006.46 1006.25 1006.08 1005.94 1005.85 1005.80 1005.80 1005.83 1005.87 1005.94 1006.01 1006.08 1006.16 1006.24 1006.34 1006.46 1006.59 1006.73 1006.88 1007.01 1007.10 1007.14 1007.10 1006.97 1006.73 1006.40 1005.98 1005.50 1005.00 1004.51 1004.07 1003.72 1003.49
1008.01 1007.82 1007.66 1007.50 1007.34 1007.16 1006.95 1006.72 1006.47 1006.22 1005.98 1005.76 1005.59 1005.46 1005.39 1005.38 1005.41 1005.48 1005.59 1005.70 1005.83 1005.97 1006.11 1006.24 1006.39 1006.53 1006.68 1006.82 1006.95 1007.05 1007.10 1007.09 1006.99 1006.81 1006.52 1006.15 1005.70 1005.20 1004.68 1004.19 1003.75 1003.40 1003.17
Thickness
5680 5676 5672 5668 5664 5661 5657 5654 5651 5648 5646 5643 5641 5639 5637 5635 5634 5632 5630 5629 5627 5626 5626 5625 5625 5625 5625 5625 5626 5626 5627 5629 5631 5637 5642 5649 5654 5660 5666 5671 5676 5681 5686
5679 5674 5670 5666 5662 5658 5655 5651 5649 5645 5643 5640 5637 5634 5632 5630 5627 5625 5623 5622 5620 5619 5618 5617 5616 5617 5616 5616 5616 5617 5618 5620 5622 5626 5631 5636 5643 5649 5655 5661 5667 5673 5678
5678 5673 5668 5664 5660 5656 5653 5649 5646 5643 5639 5636 5633 5630 5627 5625 5622 5619 5617 5615 5613 5612 5610 5609 5608 5607 5607 5607 5607 5608 5609 5612 5614 5616 5621 5625 5631 5638 5644 5651 5658 5664 5671
5677 5672 5667 5663 5659 5655 5652 5648 5644 5641 5637 5633 5630 5627 5624 5621 5618 5615 5612 5609 5606 5605 5603 5601 5600 5599 5599 5598 5599 5599 5600 5601 5603 5607 5610 5614 5620 5626 5632 5638 5645 5654 5661
5677 5671 5667 5663 5659 5655 5651 5647 5643 5639 5636 5632 5628 5624 5621 5617 5614 5610 5607 5604 5600 5597 5596 5594 5594 5594 5593 5592 5592 5591 5591 5591 5593 5596 5600 5604 5609 5614 5620 5628 5634 5642 5651
5676 5671 5667 5663 5659 5654 5650 5646 5641 5637 5634 5629 5625 5621 5617 5615 5612 5607 5603 5598 5594 5591 5589 5588 5587 5587 5587 5587 5586 5586 5585 5584 5585 5587 5590 5594 5600 5605 5611 5617 5623 5630 5639
5675 5671 5667 5662 5658 5653 5649 5644 5640 5635 5631 5627 5623 5619 5615 5611 5608 5604 5600 5594 5589 5586 5583 5581 5581 5582 5581 5579 5578 5579 5579 5581 5582 5582 5585 5589 5593 5598 5603 5608 5614 5621 5630
5675 5671 5666 5662 5657 5652 5647 5642 5638 5634 5629 5625 5621 5617 5613 5609 5606 5601 5596 5591 5585 5582 5579 5577 5574 5574 5574 5572 5571 5570 5571 5573 5575 5578 5581 5585 5588 5592 5596 5602 5606 5613 5622
5674 5670 5666 5661 5656 5651 5646 5641 5637 5632 5628 5624 5620 5615 5610 5607 5603 5598 5593 5586 5581 5578 5576 5573 5571 5569 5568 5567 5564 5563 5564 5565 5569 5572 5576 5579 5583 5587 5591 5594 5598 5603 5611
5674 5670 5665 5660 5655 5650 5645 5641 5636 5631 5626 5622 5618 5614 5609 5605 5601 5596 5590 5583 5578 5575 5572 5569 5567 5565 5564 5562 5559 5557 5557 5559 5561 5565 5568 5572 5576 5581 5585 5589 5593 5597 5604
5674 5669 5664 5659 5654 5649 5644 5639 5635 5630 5625 5620 5615 5612 5607 5603 5599 5594 5588 5580 5575 5571 5568 5565 5563 5562 5560 5557 5554 5553 5553 5554 5555 5557 5560 5564 5569 5574 5579 5584 5589 5594 5599
5672 5666 5662 5657 5652 5649 5642 5637 5633 5627 5622 5617 5612 5608 5605 5601 5596 5591 5586 5580 5575 5569 5565 5563 5560 5558 5555 5553 5551 5550 5549 5549 5549 5550 5553 5558 5563 5568 5574 5580 5585 5591 5596
5668 5663 5658 5654 5650 5645 5640 5635 5630 5625 5619 5614 5609 5604 5601 5597 5593 5589 5584 5579 5573 5567 5564 5561 5558 5555 5552 5550 5549 5547 5546 5544 5545 5546 5550 5554 5560 5565 5569 5574 5580 5585 5590
5665 5659 5655 5650 5646 5642 5638 5633 5627 5622 5617 5612 5607 5602 5598 5593 5589 5585 5580 5575 5571 5565 5561 5558 5556 5553 5551 5549 5547 5546 5545 5544 5543 5545 5548 5552 5556 5560 5564 5569 5573 5578 5583
5661 5656 5651 5647 5643 5639 5635 5631 5627 5624 5619 5613 5608 5602 5597 5592 5590 5585 5578 5573 5567 5562 5557 5554 5552 5550 5548 5547 5546 5545 5544 5544 5543 5545 5546 5549 5553 5556 5560 5564 5568 5573 5578
5657 5652 5648 5644 5640 5635 5631 5628 5628 5624 5620 5615 5610 5604 5599 5595 5590 5584 5578 5572 5567 5561 5554 5551 5549 5548 5546 5545 5544 5544 5544 5544 5545 5546 5546 5548 5550 5554 5557 5561 5564 5568 5573
5655 5650 5645 5641 5636 5632 5628 5624 5621 5621 5619 5614 5610 5604 5599 5594 5588 5583 5577 5571 5565 5559 5552 5550 5549 5547 5546 5545 5545 5544 5544 5545 5545 5546 5547 5548 5549 5552 5554 5558 5561 5564 5569
5653 5649 5643 5638 5634 5630 5626 5622 5618 5614 5611 5609 5608 5604 5599 5593 5587 5581 5575 5568 5563 5558 5554 5552 5550 5549 5547 5546 5545 5545 5544 5544 5545 5545 5546 5547 5548 5549 5552 5555 5558 5561 5565
5649 5645 5640 5636 5632 5628 5624 5620 5616 5612 5608 5606 5603 5601 5598 5592 5586 5580 5573 5566 5563 5560 5557 5554 5553 5550 5549 5547 5546 5545 5544 5544 5544 5544 5544 5546 5546 5547 5549 5552 5555 5558 5562
5645 5642 5638 5632 5628 5624 5620 5616 5613 5609 5606 5602 5599 5597 5594 5587 5582 5578 5572 5567 5564 5562 5560 5557 5555 5552 5550 5548 5546 5545 5544 5543 5543 5543 5543 5544 5545 5546 5548 5550 5553 5555 5558
5640 5637 5634 5629 5624 5620 5616 5613 5610 5606 5603 5600 5597 5595 5591 5585 5581 5577 5573 5569 5566 5563 5561 5559 5556 5553 5551 5548 5546 5545 5543 5542 5542 5542 5542 5542 5543 5545 5546 5548 5551 5553 5556
5634 5630 5626 5623 5619 5616 5612 5610 5606 5603 5600 5597 5594 5592 5589 5583 5579 5576 5573 5571 5568 5565 5562 5559 5556 5553 5551 5548 5546 5544 5542 5541 5540 5540 5540 5541 5542 5543 5545 5546 5548 5550 5553
5627 5623 5620 5617 5614 5611 5608 5605 5601 5598 5596 5593 5591 5587 5584 5580 5577 5574 5572 5570 5567 5564 5561 5558 5555 5552 5550 5547 5545 5543 5541 5540 5539 5538 5538 5539 5540 5541 5542 5544 5546 5548 5551
5620 5616 5613 5609 5606 5604 5601 5598 5595 5593 5591 5588 5586 5583 5580 5577 5574 5572 5570 5568 5565 5562 5559 5556 5554 5551 5549 5546 5543 5541 5539 5538 5537 5537 5537 5537 5538 5539 5540 5542 5544 5547 5549
5611 5608 5604 5601 5598 5596 5594 5591 5589 5586 5584 5582 5580 5578 5576 5573 5570 5568 5566 5564 5562 5559 5557 5554 5552 5549 5547 5544 5542 5539 5538 5536 5535 5535 5535 5536 5537 5538 5539 5541 5542 5545 5547
5601 5598 5595 5592 5589 5587 5585 5583 5581 5579 5576 5575 5574 5572 5570 5568 5566 5564 5561 5559 5557 5555 5553 5551 5548 5546 5544 5541 5540 5538 5536 5535 5534 5534 5533 5534 5535 5537 5538 5539 5541 5543 5545